EW4629 Weather Reports


time (UTC)temp
F
wind
direction
speed
knots
gust
knots
rain 1hr
in
rain 24hr
in
rain mn
in
humidity
%
barometer
mb
20260507030020 65 233 0.0 0.0 0.00 0.03 0.03 1 1008.3
20260507024516 65 234 0.0 0.0 0.00 0.03 0.03 1 1008.7
20260507023011 65 234 0.0 0.0 0.00 0.03 0.03 1 1008.9
20260507021510 65 233 0.0 0.0 0.00 0.03 0.03 1 1009.1
20260507020002 66 235 0.0 0.0 0.00 0.03 0.03 1 1008.8
20260507014608 66 235 0.0 0.0 0.00 0.03 0.03 1 1009.0
20260507013053 67 234 0.0 0.0 0.00 0.03 0.03 1 1009.2
20260507011600 68 234 0.0 0.0 0.00 0.03 0.03 1 1009.0
20260507010045 69 234 0.0 0.0 0.00 0.03 0.03 1 1008.9
20260507004541 69 234 0.0 0.0 0.00 0.03 0.03 1 1008.8
20260507003035 70 231 0.0 0.0 0.00 0.03 0.03 1 1008.7
20260507001543 70 232 0.0 0.0 0.00 0.03 0.03 1 1008.5
20260507000027 70 239 0.0 0.0 0.00 0.03 0.03 1 1008.3
20260506234530 71 214 0.0 0.0 0.00 0.03 0.03 1 1008.3
20260506233018 71 237 0.0 0.0 0.00 0.03 0.03 1 1008.3
20260506231514 71 214 0.0 0.0 0.00 0.03 0.03 1 1008.2
20260506230011 71 204 0.0 0.0 0.00 0.03 0.03 1 1008.0
20260506224507 71 201 0.0 0.0 0.00 0.03 0.03 1 1008.2
20260506223001 71 278 0.0 0.0 0.00 0.03 0.03 1 1008.2
20260506221556 71 221 0.0 0.0 0.00 0.03 0.03 1 1008.1
20260506214549 71 243 0.0 0.0 0.00 0.03 0.03 1 1008.2
20260506213045 71 221 0.0 0.0 0.00 0.03 0.03 1 1008.0
20260506211540 71 235 0.0 0.0 0.00 0.03 0.03 1 1008.1
20260506210036 71 242 0.0 0.0 0.00 0.03 0.03 1 1007.9
20260506204534 70 237 0.0 0.0 0.00 0.03 0.03 1 1008.1
20260506203033 70 220 0.0 0.0 0.00 0.03 0.03 1 1008.3
20260506201523 70 241 0.0 0.0 0.00 0.03 0.03 1 1008.2
20260506200019 70 215 0.0 0.0 0.00 0.03 0.03 1 1008.4
20260506194513 70 190 0.0 0.0 0.00 0.03 0.03 1 1008.5
20260506193008 70 276 0.0 0.0 0.00 0.03 0.03 1 1009.0
20260506191504 70 207 0.0 0.0 0.00 0.03 0.03 1 1009.1
20260506190100 71 239 0.0 0.0 0.00 0.03 0.03 1 1008.5
20260506184601 71 228 0.0 0.0 0.00 0.03 0.03 1 1009.1
20260506183057 70 185 0.0 0.0 0.00 0.03 0.03 1 1009.4
20260506181547 69 249 0.0 0.0 0.00 0.03 0.03 1 1009.4
20260506180045 68 235 0.0 0.0 0.00 0.03 0.03 1 1009.4
20260506174538 67 359 0.0 0.0 0.00 0.03 0.03 1 1009.7
20260506173044 66 242 0.0 0.0 0.00 0.03 0.03 1 1009.9
20260506171532 66 191 0.0 0.0 0.01 0.03 0.03 1 1009.8
20260506170025 65 278 0.0 0.0 0.01 0.03 0.03 1 1010.1
20260506164521 66 359 0.0 0.0 0.02 0.03 0.03 1 1010.1
20260506163037 66 268 0.0 0.0 0.02 0.03 0.03 1 1010.2
20260506161515 66 201 0.0 0.0 0.01 0.02 0.02 1 1010.4
20260506160009 66 222 0.0 0.0 0.01 0.02 0.02 1 1010.8
20260506154512 66 194 0.0 0.0 0.01 0.01 0.01 1 1011.0
20260506153126 66 225 0.0 0.0 0.01 0.01 0.01 1 1011.2
20260506151556 67 359 0.0 0.0 0.01 0.01 0.01 1 1011.3
20260506150051 67 248 0.0 0.0 0.01 0.01 0.01 1 1011.2
20260506144546 68 228 0.0 3.5 0.00 0.00 0.00 1 1011.2
20260506143042 68 203 0.0 0.9 0.00 0.00 0.00 1 1011.1
20260506141539 68 189 0.0 3.5 0.00 0.00 0.00 6 1011.2
20260506140035 68 170 0.0 1.7 0.00 0.00 0.00 12 1011.1
20260506134529 68 242 0.0 3.5 0.00 0.00 0.00 16 1010.9
20260506133025 69 269 0.0 1.7 0.00 0.00 0.00 16 1011.0
20260506131525 68 199 0.0 1.7 0.00 0.00 0.00 16 1011.1
20260506130016 68 184 0.0 4.3 0.00 0.00 0.00 18 1011.0
20260506124511 69 258 0.0 1.7 0.00 0.00 0.00 21 1011.0
20260506123010 68 200 0.0 3.5 0.00 0.00 0.00 17 1011.3
20260506121503 68 231 0.0 3.5 0.00 0.00 0.00 14 1011.5
20260506120059 67 205 0.0 3.5 0.00 0.00 0.00 8 1011.6
20260506114554 67 262 0.0 1.7 0.00 0.00 0.00 5 1011.4
20260506113051 66 304 0.0 3.5 0.00 0.00 0.00 1 1011.2
20260506111546 65 213 0.0 3.5 0.00 0.00 0.00 1 1011.1
20260506110043 65 257 0.0 0.9 0.00 0.00 0.00 1 1011.0
20260506104537 65 177 0.0 4.3 0.00 0.00 0.00 1 1010.9
20260506103033 65 234 0.0 4.3 0.00 0.00 0.00 1 1010.9
20260506101638 65 173 0.0 1.7 0.00 0.00 0.00 1 1011.0
20260506100028 65 273 0.0 1.7 0.00 0.00 0.00 1 1011.1
20260506094520 65 223 0.0 5.2 0.00 0.00 0.00 1 1011.0
20260506093016 65 216 0.0 3.5 0.00 0.00 0.00 1 1010.8
20260506091511 65 194 0.0 3.5 0.00 0.00 0.00 1 1010.9
20260506090006 66 189 0.0 3.5 0.00 0.00 0.00 1 1010.9
20260506084503 66 289 0.0 1.7 0.00 0.00 0.00 1 1010.9
20260506083059 66 188 0.0 4.3 0.00 0.00 0.00 1 1010.8
20260506081609 66 301 0.0 3.5 0.00 0.00 0.00 1 1010.9
20260506073041 67 250 0.0 5.2 0.00 0.00 0.00 1 1011.3
20260506071538 67 174 0.0 1.7 0.00 0.00 0.00 1 1011.2
20260506061519 68 226 0.0 0.9 0.00 0.00 0.00 1 1011.4
20260506050115 69 173 0.0 0.9 0.00 0.00 0.00 1 1011.9
20260506044553 69 208 0.0 0.9 0.00 0.00 0.00 1 1012.0
20260506043050 69 228 0.0 0.9 0.00 0.00 0.00 1 1011.9
20260506041557 69 160 0.0 3.5 0.00 0.00 0.00 1 1011.9
20260506040040 70 249 0.0 1.7 0.00 0.00 0.00 1 1011.9
20260506034548 70 258 0.0 4.3 0.00 0.00 0.00 1 1011.8
20260506033031 70 247 0.0 3.5 0.00 0.00 0.00 1 1011.8
20260506031527 70 199 0.0 3.5 0.00 0.00 0.00 1 1011.8